Year,Month,Day,Hour,Minute,Value (Times are PST for temperature in C)
2020,08,14,00,00,13.80
2020,08,14,00,01,13.80
2020,08,14,00,02,13.80
2020,08,14,00,03,13.70
2020,08,14,00,04,13.70
2020,08,14,00,05,13.70
2020,08,14,00,06,13.70
2020,08,14,00,07,13.70
2020,08,14,00,08,13.70
2020,08,14,00,09,13.70
2020,08,14,00,10,13.70
2020,08,14,00,11,13.60
2020,08,14,00,12,13.60
2020,08,14,00,13,13.60
2020,08,14,00,14,13.60
2020,08,14,00,15,13.60
2020,08,14,00,16,13.60
2020,08,14,00,17,13.60
2020,08,14,00,18,13.50
2020,08,14,00,19,13.50
2020,08,14,00,20,13.50
2020,08,14,00,21,13.50
2020,08,14,00,22,13.50
2020,08,14,00,23,13.50
2020,08,14,00,24,13.50
2020,08,14,00,25,13.50
2020,08,14,00,26,13.50
2020,08,14,00,27,13.50
2020,08,14,00,28,13.40
2020,08,14,00,29,13.40
2020,08,14,00,30,13.40
2020,08,14,00,31,13.40
2020,08,14,00,32,13.40
2020,08,14,00,33,13.40
2020,08,14,00,34,13.40
2020,08,14,00,35,13.40
2020,08,14,00,36,13.30
2020,08,14,00,37,13.30
2020,08,14,00,38,13.30
2020,08,14,00,39,13.30
2020,08,14,00,40,13.30
2020,08,14,00,41,13.30
2020,08,14,00,42,13.30
2020,08,14,00,43,13.30
2020,08,14,00,44,13.30
2020,08,14,00,45,13.30
2020,08,14,00,46,13.30
2020,08,14,00,47,13.30
2020,08,14,00,48,13.30
2020,08,14,00,49,13.30
2020,08,14,00,50,13.30
2020,08,14,00,51,13.30
2020,08,14,00,52,13.30
2020,08,14,00,53,13.20
2020,08,14,00,54,13.20
2020,08,14,00,55,13.20
2020,08,14,00,56,13.20
2020,08,14,00,57,13.20
2020,08,14,00,58,13.10
2020,08,14,00,59,13.10
2020,08,14,01,00,13.10
2020,08,14,01,01,13.10
2020,08,14,01,02,13.10
2020,08,14,01,03,13.00
2020,08,14,01,04,13.00
2020,08,14,01,05,13.00
2020,08,14,01,06,13.00
2020,08,14,01,07,13.00
2020,08,14,01,08,12.90
2020,08,14,01,09,12.90
2020,08,14,01,10,12.90
2020,08,14,01,11,12.90
2020,08,14,01,12,12.90
2020,08,14,01,13,12.90
2020,08,14,01,14,12.90
2020,08,14,01,15,12.80
2020,08,14,01,16,12.80
2020,08,14,01,17,12.80
2020,08,14,01,18,12.80
2020,08,14,01,19,12.80
2020,08,14,01,20,12.80
2020,08,14,01,21,12.80
2020,08,14,01,22,12.80
2020,08,14,01,23,12.80
2020,08,14,01,24,12.80
2020,08,14,01,25,12.80
2020,08,14,01,26,12.70
2020,08,14,01,27,12.70
2020,08,14,01,28,12.70
2020,08,14,01,29,12.70
2020,08,14,01,30,12.70
2020,08,14,01,31,12.70
2020,08,14,01,32,12.70
2020,08,14,01,33,12.70
2020,08,14,01,34,12.70
2020,08,14,01,35,12.70
2020,08,14,01,36,12.70
2020,08,14,01,37,12.70
2020,08,14,01,38,12.70
2020,08,14,01,39,12.70
2020,08,14,01,40,12.70
2020,08,14,01,41,12.70
2020,08,14,01,42,12.70
2020,08,14,01,43,12.60
2020,08,14,01,44,12.60
2020,08,14,01,45,12.60
2020,08,14,01,46,12.60
2020,08,14,01,47,12.60
2020,08,14,01,48,12.60
2020,08,14,01,49,12.50
2020,08,14,01,50,12.50
2020,08,14,01,51,12.60
2020,08,14,01,52,12.50
2020,08,14,01,53,12.60
2020,08,14,01,54,12.60
2020,08,14,01,55,12.50
2020,08,14,01,56,12.50
2020,08,14,01,57,12.50
2020,08,14,01,58,12.50
2020,08,14,01,59,12.50
2020,08,14,02,00,12.50
2020,08,14,02,01,12.40
2020,08,14,02,02,12.40
2020,08,14,02,03,12.40
2020,08,14,02,04,12.40
2020,08,14,02,05,12.40
2020,08,14,02,06,12.30
2020,08,14,02,07,12.30
2020,08,14,02,08,12.30
2020,08,14,02,09,12.30
2020,08,14,02,10,12.20
2020,08,14,02,11,12.20
2020,08,14,02,12,12.20
2020,08,14,02,13,12.20
2020,08,14,02,14,12.20
2020,08,14,02,15,12.20
2020,08,14,02,16,12.20
2020,08,14,02,17,12.20
2020,08,14,02,18,12.10
2020,08,14,02,19,12.10
2020,08,14,02,20,12.10
2020,08,14,02,21,12.10
2020,08,14,02,22,12.10
2020,08,14,02,23,12.10
2020,08,14,02,24,12.00
2020,08,14,02,25,12.00
2020,08,14,02,26,12.00
2020,08,14,02,27,12.00
2020,08,14,02,28,11.90
2020,08,14,02,29,11.90
2020,08,14,02,30,11.90
2020,08,14,02,31,11.90
2020,08,14,02,32,11.90
2020,08,14,02,33,11.90
2020,08,14,02,34,11.90
2020,08,14,02,35,11.90
2020,08,14,02,36,11.90
2020,08,14,02,37,11.90
2020,08,14,02,38,11.90
2020,08,14,02,39,11.90
2020,08,14,02,40,11.90
2020,08,14,02,41,11.90
2020,08,14,02,42,11.90
2020,08,14,02,43,11.90
2020,08,14,02,44,11.90
2020,08,14,02,45,11.90
2020,08,14,02,46,11.90
2020,08,14,02,47,11.90
2020,08,14,02,48,11.90
2020,08,14,02,49,11.90
2020,08,14,02,50,11.90
2020,08,14,02,51,11.90
2020,08,14,02,52,11.90
2020,08,14,02,53,11.90
2020,08,14,02,54,11.90
2020,08,14,02,55,11.90
2020,08,14,02,56,11.90
2020,08,14,02,57,11.90
2020,08,14,02,58,11.90
2020,08,14,02,59,11.90
2020,08,14,03,00,11.90
2020,08,14,03,01,11.90
2020,08,14,03,02,11.80
2020,08,14,03,03,11.80
2020,08,14,03,04,11.80
2020,08,14,03,05,11.80
2020,08,14,03,06,11.80
2020,08,14,03,07,11.80
2020,08,14,03,08,11.80
2020,08,14,03,09,11.80
2020,08,14,03,10,11.80
2020,08,14,03,11,11.70
2020,08,14,03,12,11.70
2020,08,14,03,13,11.70
2020,08,14,03,14,11.70
2020,08,14,03,15,11.70
2020,08,14,03,16,11.70
2020,08,14,03,17,11.60
2020,08,14,03,18,11.60
2020,08,14,03,19,11.60
2020,08,14,03,20,11.60
2020,08,14,03,21,11.60
2020,08,14,03,22,11.60
2020,08,14,03,23,11.60
2020,08,14,03,24,11.50
2020,08,14,03,25,11.50
2020,08,14,03,26,11.50
2020,08,14,03,27,11.50
2020,08,14,03,28,11.50
2020,08,14,03,29,11.50
2020,08,14,03,30,11.50
2020,08,14,03,31,11.50
2020,08,14,03,32,11.50
2020,08,14,03,33,11.50
2020,08,14,03,34,11.40
2020,08,14,03,35,11.40
2020,08,14,03,36,11.40
2020,08,14,03,37,11.40
2020,08,14,03,38,11.40
2020,08,14,03,39,11.30
2020,08,14,03,40,11.30
2020,08,14,03,41,11.30
2020,08,14,03,42,11.30
2020,08,14,03,43,11.30
2020,08,14,03,44,11.30
2020,08,14,03,45,11.30
2020,08,14,03,46,11.20
2020,08,14,03,47,11.20
2020,08,14,03,48,11.20
2020,08,14,03,49,11.20
2020,08,14,03,50,11.20
2020,08,14,03,51,11.20
2020,08,14,03,52,11.30
2020,08,14,03,53,11.30
2020,08,14,03,54,11.30
2020,08,14,03,55,11.30
2020,08,14,03,56,11.30
2020,08,14,03,57,11.30
2020,08,14,03,58,11.20
2020,08,14,03,59,11.20
2020,08,14,04,00,11.20
2020,08,14,04,01,11.20
2020,08,14,04,02,11.20
2020,08,14,04,03,11.20
2020,08,14,04,04,11.20
2020,08,14,04,05,11.20
2020,08,14,04,06,11.20
2020,08,14,04,07,11.20
2020,08,14,04,08,11.20
2020,08,14,04,09,11.20
2020,08,14,04,10,11.20
2020,08,14,04,11,11.20
2020,08,14,04,12,11.10
2020,08,14,04,13,11.10
2020,08,14,04,14,11.10
2020,08,14,04,15,11.10
2020,08,14,04,16,11.10
2020,08,14,04,17,11.10
2020,08,14,04,18,11.10
2020,08,14,04,19,11.10
2020,08,14,04,20,11.10
2020,08,14,04,21,11.00
2020,08,14,04,22,11.00
2020,08,14,04,23,11.00
2020,08,14,04,24,11.00
2020,08,14,04,25,10.90
2020,08,14,04,26,10.90
2020,08,14,04,27,10.90
2020,08,14,04,28,10.90
2020,08,14,04,29,10.80
2020,08,14,04,30,10.80
2020,08,14,04,31,10.80
2020,08,14,04,32,10.80
2020,08,14,04,33,10.80
2020,08,14,04,34,10.80
2020,08,14,04,35,10.80
2020,08,14,04,36,10.80
2020,08,14,04,37,10.80
2020,08,14,04,38,10.80
2020,08,14,04,39,10.80
2020,08,14,04,40,10.80
2020,08,14,04,41,10.80
2020,08,14,04,42,10.80
2020,08,14,04,43,10.80
2020,08,14,04,44,10.80
2020,08,14,04,45,10.80
2020,08,14,04,46,10.80
2020,08,14,04,47,10.90
2020,08,14,04,48,10.90
2020,08,14,04,49,10.90
2020,08,14,04,50,10.90
2020,08,14,04,51,10.90
2020,08,14,04,52,10.90
2020,08,14,04,53,10.90
2020,08,14,04,54,10.90
2020,08,14,04,55,10.90
2020,08,14,04,56,10.90
2020,08,14,04,57,10.90
2020,08,14,04,58,10.90
2020,08,14,04,59,10.90
2020,08,14,05,00,10.90
2020,08,14,05,01,10.90
2020,08,14,05,02,10.90
2020,08,14,05,03,10.90
2020,08,14,05,04,10.90
2020,08,14,05,05,10.90
2020,08,14,05,06,10.90
2020,08,14,05,07,10.90
2020,08,14,05,08,10.90
2020,08,14,05,09,10.90
2020,08,14,05,10,10.90
2020,08,14,05,11,10.90
2020,08,14,05,12,10.80
2020,08,14,05,13,10.80
2020,08,14,05,14,10.80
2020,08,14,05,15,10.80
2020,08,14,05,16,10.80
2020,08,14,05,17,10.80
2020,08,14,05,18,10.70
2020,08,14,05,19,10.70
2020,08,14,05,20,10.70
2020,08,14,05,21,10.70
2020,08,14,05,22,10.70
2020,08,14,05,23,10.60
2020,08,14,05,24,10.60
2020,08,14,05,25,10.60
2020,08,14,05,26,10.60
2020,08,14,05,27,10.60
2020,08,14,05,28,10.60
2020,08,14,05,29,10.60
2020,08,14,05,30,10.60
2020,08,14,05,31,10.60
2020,08,14,05,32,10.60
2020,08,14,05,33,10.60
2020,08,14,05,34,10.60
2020,08,14,05,35,10.60
2020,08,14,05,36,10.60
2020,08,14,05,37,10.60
2020,08,14,05,38,10.50
2020,08,14,05,39,10.50
2020,08,14,05,40,10.60
2020,08,14,05,41,10.60
2020,08,14,05,42,10.60
2020,08,14,05,43,10.60
2020,08,14,05,44,10.60
2020,08,14,05,45,10.60
2020,08,14,05,46,10.60
2020,08,14,05,47,10.60
2020,08,14,05,48,10.60
2020,08,14,05,49,10.60
2020,08,14,05,50,10.60
2020,08,14,05,51,10.60
2020,08,14,05,52,10.50
2020,08,14,05,53,10.50
2020,08,14,05,54,10.50
2020,08,14,05,55,10.50
2020,08,14,05,56,10.50
2020,08,14,05,57,10.50
2020,08,14,05,58,10.50
2020,08,14,05,59,10.40
2020,08,14,06,00,10.40
2020,08,14,06,01,10.40
2020,08,14,06,02,10.40
2020,08,14,06,03,10.40
2020,08,14,06,04,10.40
2020,08,14,06,05,10.30
2020,08,14,06,06,10.30
2020,08,14,06,07,10.30
2020,08,14,06,08,10.30
2020,08,14,06,09,10.30
2020,08,14,06,10,10.30
2020,08,14,06,11,10.30
2020,08,14,06,12,10.40
2020,08,14,06,13,10.40
2020,08,14,06,14,10.40
2020,08,14,06,15,10.40
2020,08,14,06,16,10.40
2020,08,14,06,17,10.40
2020,08,14,06,18,10.40
2020,08,14,06,19,10.40
2020,08,14,06,20,10.40
2020,08,14,06,21,10.40
2020,08,14,06,22,10.40
2020,08,14,06,23,10.40
2020,08,14,06,24,10.40
2020,08,14,06,25,10.30
2020,08,14,06,26,10.30
2020,08,14,06,27,10.30
2020,08,14,06,28,10.30
2020,08,14,06,29,10.30
2020,08,14,06,30,10.30
2020,08,14,06,31,10.30
2020,08,14,06,32,10.30
2020,08,14,06,33,10.40
2020,08,14,06,34,10.40
2020,08,14,06,35,10.40
2020,08,14,06,36,10.40
2020,08,14,06,37,10.40
2020,08,14,06,38,10.40
2020,08,14,06,39,10.40
2020,08,14,06,40,10.40
2020,08,14,06,41,10.40
2020,08,14,06,42,10.40
2020,08,14,06,43,10.40
2020,08,14,06,44,10.40
2020,08,14,06,45,10.40
2020,08,14,06,46,10.50
2020,08,14,06,47,10.50
2020,08,14,06,48,10.50
2020,08,14,06,49,10.60
2020,08,14,06,50,10.60
2020,08,14,06,51,10.70
2020,08,14,06,52,10.80
2020,08,14,06,53,10.80
2020,08,14,06,54,10.90
2020,08,14,06,55,10.90
2020,08,14,06,56,11.00
2020,08,14,06,57,11.10
2020,08,14,06,58,11.10
2020,08,14,06,59,11.20
2020,08,14,07,00,11.20
2020,08,14,07,01,11.30
2020,08,14,07,02,11.30
2020,08,14,07,03,11.30
2020,08,14,07,04,11.30
2020,08,14,07,05,11.30
2020,08,14,07,06,11.40
2020,08,14,07,07,11.40
2020,08,14,07,08,11.40
2020,08,14,07,09,11.40
2020,08,14,07,10,11.50
2020,08,14,07,11,11.50
2020,08,14,07,12,11.50
2020,08,14,07,13,11.60
2020,08,14,07,14,11.60
2020,08,14,07,15,11.70
2020,08,14,07,16,11.70
2020,08,14,07,17,11.70
2020,08,14,07,18,11.80
2020,08,14,07,19,11.80
2020,08,14,07,20,11.90
2020,08,14,07,21,11.90
2020,08,14,07,22,12.00
2020,08,14,07,23,12.10
2020,08,14,07,24,12.20
2020,08,14,07,25,12.30
2020,08,14,07,26,12.40
2020,08,14,07,27,12.50
2020,08,14,07,28,12.70
2020,08,14,07,29,12.80
2020,08,14,07,30,12.90
2020,08,14,07,31,13.00
2020,08,14,07,32,13.10
2020,08,14,07,33,13.20
2020,08,14,07,34,13.30
2020,08,14,07,35,13.30
2020,08,14,07,36,13.40
2020,08,14,07,37,13.50
2020,08,14,07,38,13.50
2020,08,14,07,39,13.60
2020,08,14,07,40,13.70
2020,08,14,07,41,13.80
2020,08,14,07,42,14.00
2020,08,14,07,43,14.10
2020,08,14,07,44,14.20
2020,08,14,07,45,14.30
2020,08,14,07,46,14.50
2020,08,14,07,47,14.60
2020,08,14,07,48,14.70
2020,08,14,07,49,14.80
2020,08,14,07,50,14.80
2020,08,14,07,51,14.90
2020,08,14,07,52,15.00
2020,08,14,07,53,15.00
2020,08,14,07,54,15.10
2020,08,14,07,55,15.10
2020,08,14,07,56,15.20
2020,08,14,07,57,15.20
2020,08,14,07,58,15.30
2020,08,14,07,59,15.30
2020,08,14,08,00,15.40
2020,08,14,08,01,15.50
2020,08,14,08,02,15.50
2020,08,14,08,03,15.60
2020,08,14,08,04,15.70
2020,08,14,08,05,15.70
2020,08,14,08,06,15.80
2020,08,14,08,07,15.80
2020,08,14,08,08,15.80
2020,08,14,08,09,15.80
2020,08,14,08,10,15.90
2020,08,14,08,11,15.90
2020,08,14,08,12,15.90
2020,08,14,08,13,16.00
2020,08,14,08,14,16.00
2020,08,14,08,15,16.10
2020,08,14,08,16,16.20
2020,08,14,08,17,16.20
2020,08,14,08,18,16.30
2020,08,14,08,19,16.30
2020,08,14,08,20,16.30
2020,08,14,08,21,16.30
2020,08,14,08,22,16.30
2020,08,14,08,23,16.30
2020,08,14,08,24,16.30
2020,08,14,08,25,16.30
2020,08,14,08,26,16.30
2020,08,14,08,27,16.30
2020,08,14,08,28,16.30
2020,08,14,08,29,16.30
2020,08,14,08,30,16.40
2020,08,14,08,31,16.40
2020,08,14,08,32,16.40
2020,08,14,08,33,16.50
2020,08,14,08,34,16.50
2020,08,14,08,35,16.60
2020,08,14,08,36,16.60
2020,08,14,08,37,16.60
2020,08,14,08,38,16.70
2020,08,14,08,39,16.70
2020,08,14,08,40,16.70
2020,08,14,08,41,16.70
2020,08,14,08,42,16.70
2020,08,14,08,43,16.80
2020,08,14,08,44,16.80
2020,08,14,08,45,16.90
2020,08,14,08,46,16.90
2020,08,14,08,47,16.90
2020,08,14,08,48,17.00
2020,08,14,08,49,17.00
2020,08,14,08,50,17.00
2020,08,14,08,51,17.10
2020,08,14,08,52,17.20
2020,08,14,08,53,17.20
2020,08,14,08,54,17.30
2020,08,14,08,55,17.40
2020,08,14,08,56,17.50
2020,08,14,08,57,17.60
2020,08,14,08,58,17.70
2020,08,14,08,59,17.80
2020,08,14,09,00,17.90
2020,08,14,09,01,18.00
2020,08,14,09,02,18.10
2020,08,14,09,03,18.20
2020,08,14,09,04,18.20
2020,08,14,09,05,18.30
2020,08,14,09,06,18.30
2020,08,14,09,07,18.30
2020,08,14,09,08,18.20
2020,08,14,09,09,18.30
2020,08,14,09,10,18.30
2020,08,14,09,11,18.30
2020,08,14,09,12,18.40
2020,08,14,09,13,18.40
2020,08,14,09,14,18.40
2020,08,14,09,15,18.40
2020,08,14,09,16,18.50
2020,08,14,09,17,18.50
2020,08,14,09,18,18.50
2020,08,14,09,19,18.60
2020,08,14,09,20,18.60
2020,08,14,09,21,18.70
2020,08,14,09,22,18.70
2020,08,14,09,23,18.70
2020,08,14,09,24,18.70
2020,08,14,09,25,18.70
2020,08,14,09,26,18.60
2020,08,14,09,27,18.60
2020,08,14,09,28,18.50
2020,08,14,09,29,18.40
2020,08,14,09,30,18.40
2020,08,14,09,31,18.50
2020,08,14,09,32,18.50
2020,08,14,09,33,18.60
2020,08,14,09,34,18.60
2020,08,14,09,35,18.70
2020,08,14,09,36,18.70
2020,08,14,09,37,18.80
2020,08,14,09,38,18.90
2020,08,14,09,39,18.90
2020,08,14,09,40,19.00
2020,08,14,09,41,19.00
2020,08,14,09,42,19.00
2020,08,14,09,43,19.00
2020,08,14,09,44,19.00
2020,08,14,09,45,19.00
2020,08,14,09,46,18.90
2020,08,14,09,47,18.90
2020,08,14,09,48,18.90
2020,08,14,09,49,19.00
2020,08,14,09,50,19.00
2020,08,14,09,51,19.10
2020,08,14,09,52,19.10
2020,08,14,09,53,19.20
2020,08,14,09,54,19.20
2020,08,14,09,55,19.20
2020,08,14,09,56,19.20
2020,08,14,09,57,19.20
2020,08,14,09,58,19.20
2020,08,14,09,59,19.20
2020,08,14,10,00,19.20
2020,08,14,10,01,19.20
2020,08,14,10,02,19.20
2020,08,14,10,03,19.20
2020,08,14,10,04,19.30
2020,08,14,10,05,19.30
2020,08,14,10,06,19.30
2020,08,14,10,07,19.30
2020,08,14,10,08,19.20
2020,08,14,10,09,19.20
2020,08,14,10,10,19.10
2020,08,14,10,11,19.10
2020,08,14,10,12,19.10
2020,08,14,10,13,19.10
2020,08,14,10,14,19.10
2020,08,14,10,15,19.10
2020,08,14,10,16,19.20
2020,08,14,10,17,19.20
2020,08,14,10,18,19.20
2020,08,14,10,19,19.30
2020,08,14,10,20,19.40
2020,08,14,10,21,19.50
2020,08,14,10,22,19.60
2020,08,14,10,23,19.70
2020,08,14,10,24,19.70
2020,08,14,10,25,19.70
2020,08,14,10,26,19.80
2020,08,14,10,27,19.90
2020,08,14,10,28,19.90
2020,08,14,10,29,20.00
2020,08,14,10,30,20.10
2020,08,14,10,31,20.10
2020,08,14,10,32,20.20
2020,08,14,10,33,20.20
2020,08,14,10,34,20.20
2020,08,14,10,35,20.30
2020,08,14,10,36,20.30
2020,08,14,10,37,20.30
2020,08,14,10,38,20.30
2020,08,14,10,39,20.30
2020,08,14,10,40,20.40
2020,08,14,10,41,20.40
2020,08,14,10,42,20.40
2020,08,14,10,43,20.40
2020,08,14,10,44,20.40
2020,08,14,10,45,20.40
2020,08,14,10,46,20.40
2020,08,14,10,47,20.40
2020,08,14,10,48,20.50
2020,08,14,10,49,20.50
2020,08,14,10,50,20.60
2020,08,14,10,51,20.70
2020,08,14,10,52,20.70
2020,08,14,10,53,20.80
2020,08,14,10,54,20.80
2020,08,14,10,55,20.80
2020,08,14,10,56,20.80
2020,08,14,10,57,20.80
2020,08,14,10,58,20.90
2020,08,14,10,59,21.00
2020,08,14,11,00,21.00
2020,08,14,11,01,21.00
2020,08,14,11,02,20.90
2020,08,14,11,03,20.90
2020,08,14,11,04,20.90
2020,08,14,11,05,20.80
2020,08,14,11,06,20.80
2020,08,14,11,07,20.80
2020,08,14,11,08,20.80
2020,08,14,11,09,20.80
2020,08,14,11,10,20.80
2020,08,14,11,11,20.80
2020,08,14,11,12,20.90
2020,08,14,11,13,20.90
2020,08,14,11,14,20.90
2020,08,14,11,15,21.00
2020,08,14,11,16,21.00
2020,08,14,11,17,21.00
2020,08,14,11,18,21.00
2020,08,14,11,19,21.00
2020,08,14,11,20,20.90
2020,08,14,11,21,20.80
2020,08,14,11,22,20.70
2020,08,14,11,23,20.70
2020,08,14,11,24,20.60
2020,08,14,11,25,20.60
2020,08,14,11,26,20.50
2020,08,14,11,27,20.50
2020,08,14,11,28,20.60
2020,08,14,11,29,20.70
2020,08,14,11,30,20.80
2020,08,14,11,31,20.80
2020,08,14,11,32,20.90
2020,08,14,11,33,21.00
2020,08,14,11,34,21.10
2020,08,14,11,35,21.20
2020,08,14,11,36,21.20
2020,08,14,11,37,21.30
2020,08,14,11,38,21.30
2020,08,14,11,39,21.40
2020,08,14,11,40,21.40
2020,08,14,11,41,21.40
2020,08,14,11,42,21.40
2020,08,14,11,43,21.40
2020,08,14,11,44,21.40
2020,08,14,11,45,21.50
2020,08,14,11,46,21.50
2020,08,14,11,47,21.60
2020,08,14,11,48,21.60
2020,08,14,11,49,21.60
2020,08,14,11,50,21.50
2020,08,14,11,51,21.40
2020,08,14,11,52,21.30
2020,08,14,11,53,21.30
2020,08,14,11,54,21.20
2020,08,14,11,55,21.20
2020,08,14,11,56,21.10
2020,08,14,11,57,21.00
2020,08,14,11,58,21.00
2020,08,14,11,59,20.90
2020,08,14,12,00,20.90
2020,08,14,12,01,21.00
2020,08,14,12,02,21.00
2020,08,14,12,03,21.00
2020,08,14,12,04,21.00
2020,08,14,12,05,21.00
2020,08,14,12,06,21.10
2020,08,14,12,07,21.20
2020,08,14,12,08,21.20
2020,08,14,12,09,21.20
2020,08,14,12,10,21.30
2020,08,14,12,11,21.30
2020,08,14,12,12,21.30
2020,08,14,12,13,21.30
2020,08,14,12,14,21.30
2020,08,14,12,15,21.40
2020,08,14,12,16,21.40
2020,08,14,12,17,21.40
2020,08,14,12,18,21.50
2020,08,14,12,19,21.50
2020,08,14,12,20,21.50
2020,08,14,12,21,21.60
2020,08,14,12,22,21.70
2020,08,14,12,23,21.80
2020,08,14,12,24,21.80
2020,08,14,12,25,21.80
2020,08,14,12,26,21.80
2020,08,14,12,27,21.80
2020,08,14,12,28,21.80
2020,08,14,12,29,21.70
2020,08,14,12,30,21.60
2020,08,14,12,31,21.60
2020,08,14,12,32,21.70
2020,08,14,12,33,21.70
2020,08,14,12,34,21.80
2020,08,14,12,35,21.80
2020,08,14,12,36,21.80
2020,08,14,12,37,21.70
2020,08,14,12,38,21.70
2020,08,14,12,39,21.70
2020,08,14,12,40,21.80
2020,08,14,12,41,21.70
2020,08,14,12,42,21.70
2020,08,14,12,43,21.70
2020,08,14,12,44,21.70
2020,08,14,12,45,21.70
2020,08,14,12,46,21.70
2020,08,14,12,47,21.80
2020,08,14,12,48,21.90
2020,08,14,12,49,21.90
2020,08,14,12,50,21.90
2020,08,14,12,51,21.90
2020,08,14,12,52,21.80
2020,08,14,12,53,21.80
2020,08,14,12,54,21.80
2020,08,14,12,55,21.80
2020,08,14,12,56,21.90
2020,08,14,12,57,22.00
2020,08,14,12,58,22.10
2020,08,14,12,59,22.10
2020,08,14,13,00,22.10
2020,08,14,13,01,22.00
2020,08,14,13,02,22.00
2020,08,14,13,03,21.90
2020,08,14,13,04,21.90
2020,08,14,13,05,21.90
2020,08,14,13,06,21.90
2020,08,14,13,07,21.90
2020,08,14,13,08,21.90
2020,08,14,13,09,21.90
2020,08,14,13,10,21.80
2020,08,14,13,11,21.80
2020,08,14,13,12,21.80
2020,08,14,13,13,21.80
2020,08,14,13,14,21.80
2020,08,14,13,15,21.80
2020,08,14,13,16,21.90
2020,08,14,13,17,21.80
2020,08,14,13,18,21.80
2020,08,14,13,19,21.80
2020,08,14,13,20,21.90
2020,08,14,13,21,21.90
2020,08,14,13,22,22.10
2020,08,14,13,23,22.20
2020,08,14,13,24,22.30
2020,08,14,13,25,22.30
2020,08,14,13,26,22.30
2020,08,14,13,27,22.20
2020,08,14,13,28,22.20
2020,08,14,13,29,22.10
2020,08,14,13,30,22.00
2020,08,14,13,31,21.90
2020,08,14,13,32,21.90
2020,08,14,13,33,21.80
2020,08,14,13,34,21.80
2020,08,14,13,35,21.80
2020,08,14,13,36,21.80
2020,08,14,13,37,21.90
2020,08,14,13,38,22.00
2020,08,14,13,39,22.00
2020,08,14,13,40,22.00
2020,08,14,13,41,22.00
2020,08,14,13,42,22.00
2020,08,14,13,43,22.00
2020,08,14,13,44,22.00
2020,08,14,13,45,21.90
2020,08,14,13,46,21.90
2020,08,14,13,47,21.80
2020,08,14,13,48,21.80
2020,08,14,13,49,21.80
2020,08,14,13,50,21.90
2020,08,14,13,51,22.00
2020,08,14,13,52,22.10
2020,08,14,13,53,22.10
2020,08,14,13,54,22.20
2020,08,14,13,55,22.20
2020,08,14,13,56,22.20
2020,08,14,13,57,22.20
2020,08,14,13,58,22.20
2020,08,14,13,59,22.20
2020,08,14,14,00,22.30
2020,08,14,14,01,22.30
2020,08,14,14,02,22.40
2020,08,14,14,03,22.40
2020,08,14,14,04,22.40
2020,08,14,14,05,22.30
2020,08,14,14,06,22.30
2020,08,14,14,07,22.30
2020,08,14,14,08,22.30
2020,08,14,14,09,22.30
2020,08,14,14,10,22.30
2020,08,14,14,11,22.30
2020,08,14,14,12,22.30
2020,08,14,14,13,22.30
2020,08,14,14,14,22.30
2020,08,14,14,15,22.30
2020,08,14,14,16,22.40
2020,08,14,14,17,22.40
2020,08,14,14,18,22.50
2020,08,14,14,19,22.60
2020,08,14,14,20,22.60
2020,08,14,14,21,22.60
2020,08,14,14,22,22.60
2020,08,14,14,23,22.60
2020,08,14,14,24,22.60
2020,08,14,14,25,22.60
2020,08,14,14,26,22.70
2020,08,14,14,27,22.70
2020,08,14,14,28,22.70
2020,08,14,14,29,22.70
2020,08,14,14,30,22.70
2020,08,14,14,31,22.70
2020,08,14,14,32,22.80
2020,08,14,14,33,22.80
2020,08,14,14,34,22.90
2020,08,14,14,35,22.90
2020,08,14,14,36,22.90
2020,08,14,14,37,23.00
2020,08,14,14,38,23.00
2020,08,14,14,39,23.10
2020,08,14,14,40,23.10
2020,08,14,14,41,23.10
2020,08,14,14,42,23.00
2020,08,14,14,43,23.00
2020,08,14,14,44,22.90
2020,08,14,14,45,22.90
2020,08,14,14,46,22.80
2020,08,14,14,47,22.70
2020,08,14,14,48,22.60
2020,08,14,14,49,22.60
2020,08,14,14,50,22.60
2020,08,14,14,51,22.60
2020,08,14,14,52,22.50
2020,08,14,14,53,22.50
2020,08,14,14,54,22.50
2020,08,14,14,55,22.50
2020,08,14,14,56,22.50
2020,08,14,14,57,22.60
2020,08,14,14,58,22.60
2020,08,14,14,59,22.60
2020,08,14,15,00,22.60
2020,08,14,15,01,22.60
2020,08,14,15,02,22.60
2020,08,14,15,03,22.60
2020,08,14,15,04,22.70
2020,08,14,15,05,22.80
2020,08,14,15,06,22.90
2020,08,14,15,07,23.00
2020,08,14,15,08,23.10
2020,08,14,15,09,23.20
2020,08,14,15,10,23.20
2020,08,14,15,11,23.10
2020,08,14,15,12,23.00
2020,08,14,15,13,22.90
2020,08,14,15,14,22.80
2020,08,14,15,15,22.80
2020,08,14,15,16,22.80
2020,08,14,15,17,22.70
2020,08,14,15,18,22.80
2020,08,14,15,19,22.90
2020,08,14,15,20,22.90
2020,08,14,15,21,23.00
2020,08,14,15,22,23.10
2020,08,14,15,23,23.20
2020,08,14,15,24,23.20
2020,08,14,15,25,23.20
2020,08,14,15,26,23.10
2020,08,14,15,27,23.10
2020,08,14,15,28,23.10
2020,08,14,15,29,23.10
2020,08,14,15,30,23.10
2020,08,14,15,31,23.00
2020,08,14,15,32,23.00
2020,08,14,15,33,23.00
2020,08,14,15,34,23.10
2020,08,14,15,35,23.10
2020,08,14,15,36,23.10
2020,08,14,15,37,23.00
2020,08,14,15,38,23.00
2020,08,14,15,39,23.00
2020,08,14,15,40,23.00
2020,08,14,15,41,23.10
2020,08,14,15,42,23.10
2020,08,14,15,43,23.20
2020,08,14,15,44,23.20
2020,08,14,15,45,23.20
2020,08,14,15,46,23.20
2020,08,14,15,47,23.10
2020,08,14,15,48,23.10
2020,08,14,15,49,23.10
2020,08,14,15,50,23.20
2020,08,14,15,51,23.20
2020,08,14,15,52,23.30
2020,08,14,15,53,23.30
2020,08,14,15,54,23.30
2020,08,14,15,55,23.30
2020,08,14,15,56,23.30
2020,08,14,15,57,23.30
2020,08,14,15,58,23.40
2020,08,14,15,59,23.40
2020,08,14,16,00,23.40
2020,08,14,16,01,23.30
2020,08,14,16,02,23.20
2020,08,14,16,03,23.20
2020,08,14,16,04,23.30
2020,08,14,16,05,23.30
2020,08,14,16,06,23.20
2020,08,14,16,07,23.20
2020,08,14,16,08,23.20
2020,08,14,16,09,23.20
2020,08,14,16,10,23.30
2020,08,14,16,11,23.30
2020,08,14,16,12,23.40
2020,08,14,16,13,23.40
2020,08,14,16,14,23.40
2020,08,14,16,15,23.40
2020,08,14,16,16,23.30
2020,08,14,16,17,23.30
2020,08,14,16,18,23.40
2020,08,14,16,19,23.40
2020,08,14,16,20,23.50
2020,08,14,16,21,23.50
2020,08,14,16,22,23.50
2020,08,14,16,23,23.60
2020,08,14,16,24,23.60
2020,08,14,16,25,23.60
2020,08,14,16,26,23.60
2020,08,14,16,27,23.50
2020,08,14,16,28,23.50
2020,08,14,16,29,23.50
2020,08,14,16,30,23.50
2020,08,14,16,31,23.50
2020,08,14,16,32,23.50
2020,08,14,16,33,23.50
2020,08,14,16,34,23.40
2020,08,14,16,35,23.50
2020,08,14,16,36,23.50
2020,08,14,16,37,23.50
2020,08,14,16,38,23.40
2020,08,14,16,39,23.40
2020,08,14,16,40,23.40
2020,08,14,16,41,23.40
2020,08,14,16,42,23.50
2020,08,14,16,43,23.50
2020,08,14,16,44,23.60
2020,08,14,16,45,23.60
2020,08,14,16,46,23.70
2020,08,14,16,47,23.70
2020,08,14,16,48,23.70
2020,08,14,16,49,23.70
2020,08,14,16,50,23.60
2020,08,14,16,51,23.60
2020,08,14,16,52,23.50
2020,08,14,16,53,23.50
2020,08,14,16,54,23.40
2020,08,14,16,55,23.40
2020,08,14,16,56,23.40
2020,08,14,16,57,23.40
2020,08,14,16,58,23.40
2020,08,14,16,59,23.40
2020,08,14,17,00,23.40
2020,08,14,17,01,23.40
2020,08,14,17,02,23.40
2020,08,14,17,03,23.40
2020,08,14,17,04,23.40
2020,08,14,17,05,23.50
2020,08,14,17,06,23.50
2020,08,14,17,07,23.50
2020,08,14,17,08,23.60
2020,08,14,17,09,23.60
2020,08,14,17,10,23.60
2020,08,14,17,11,23.70
2020,08,14,17,12,23.80
2020,08,14,17,13,23.90
2020,08,14,17,14,23.90
2020,08,14,17,15,23.90
2020,08,14,17,16,23.90
2020,08,14,17,17,23.90
2020,08,14,17,18,23.90
2020,08,14,17,19,23.80